(64) Angelina
ephemeris date magn radius delta ra dec elong phase
Opposition12 Aug 202511.73.014 AU2.001 AU21h27m-14°34'179.6°0.1°
Today17 Sep 202512.63.003 AU2.169 AU21h02m-16°18'139.3°12.6°
(64) Angelina - 2025-09-17
astro.vanbuitenen.nl


 
-1 year
-1 month
-1 day
Now
+1 day
+1 month
+1 year

The interactive orbit chart above shows the body's path through the solar system and its position at the given date. Green and blue lines are shown perpendicular to the ecliptic plane: Green if the path is above the ecliptic plane, blue if it is below. (Left-click and drag to rotate the view; Right-click and drag to move the view; Use scroll wheel to zoom in our out.)

The orbital elements of Angelina are:

            e (Eccentricity)                : 0.1263913
            a (Semimajor axis)              : 2.6813521
            i (Inclination)                 : 1.30576
            Ω (Longitude of ascending node) : 308.95637
            ω (Argument of perihelion)      : 181.02657
            M (Mean anomaly)                : 170.05788
            Epoch                           : 2025 May 05

            L (Longitude of perihelion)     : 309.98267
            B (Latitude of perihelion)      : -0.02339
            P (Orbital period in years)     : 4.39            
        

The light curve chart below shows the estimated development of the minor planet's magnitude.


The all-sky chart below shows the path of the minor planet over the same period as the light curve. The current position is marked yellow.





The following chart shows the path of the minor planet in the next few days. The field of view is optimized for (~10x50) binoculars and finderscopes. A more printer-friendly version of the same chart can be found below.




Ephemerides:
Date       Time       RA (2000)    DEC (2000)    delta   radius  elong  phase   PA    magn
2025-09-17 00:00 UT   21 02 41.4   -16 18 09     2.169    3.003  139.3   12.6    74   12.6 
2025-09-17 10:13 UT   21 02 31.1   -16 18 48     2.172    3.003  138.9   12.7    74   12.6 
2025-09-18 00:00 UT   21 02 17.7   -16 19 39     2.178    3.003  138.3   12.9    74   12.6 
2025-09-19 00:00 UT   21 01 55.3   -16 21 03     2.187    3.003  137.2   13.1    74   12.6 
2025-09-20 00:00 UT   21 01 34.4   -16 22 21     2.196    3.002  136.1   13.4    74   12.6 
2025-09-21 00:00 UT   21 01 14.8   -16 23 33     2.206    3.002  135.1   13.7    74   12.6 
2025-09-22 00:00 UT   21 00 56.7   -16 24 39     2.216    3.002  134.0   13.9    74   12.6 
2025-09-23 00:00 UT   21 00 40.0   -16 25 40     2.226    3.001  133.0   14.2    74   12.7 
2025-09-24 00:00 UT   21 00 24.7   -16 26 35     2.236    3.001  131.9   14.4    74   12.7 
2025-09-25 00:00 UT   21 00 10.9   -16 27 24     2.246    3.000  130.9   14.6    74   12.7 
2025-09-26 00:00 UT   20 59 58.5   -16 28 07     2.257    3.000  129.9   14.9    74   12.7 
2025-09-27 00:00 UT   20 59 47.6   -16 28 44     2.267    3.000  128.8   15.1    74   12.7 
2025-09-28 00:00 UT   20 59 38.1   -16 29 15     2.278    2.999  127.8   15.3    74   12.8 
2025-09-29 00:00 UT   20 59 30.0   -16 29 40     2.289    2.999  126.8   15.5    74   12.8 
2025-09-30 00:00 UT   20 59 23.4   -16 29 59     2.300    2.998  125.8   15.7    74   12.8 
2025-10-01 00:00 UT   20 59 18.3   -16 30 13     2.312    2.998  124.8   15.9    74   12.8 
2025-10-02 00:00 UT   20 59 14.5   -16 30 21     2.323    2.997  123.8   16.1    74   12.8 
2025-10-03 00:00 UT   20 59 12.3   -16 30 22     2.334    2.997  122.8   16.3    74   12.8 
2025-10-04 00:00 UT   20 59 11.4   -16 30 18     2.346    2.997  121.8   16.5    74   12.9 
2025-10-05 00:00 UT   20 59 12.0   -16 30 09     2.358    2.996  120.8   16.7    74   12.9 
2025-10-06 00:00 UT   20 59 13.9   -16 29 53     2.370    2.996  119.9   16.8    74   12.9 
2025-10-07 00:00 UT   20 59 17.3   -16 29 32     2.382    2.995  118.9   17.0    74   12.9 
2025-10-08 00:00 UT   20 59 22.1   -16 29 05     2.394    2.995  117.9   17.1    74   12.9 
2025-10-09 00:00 UT   20 59 28.2   -16 28 33     2.406    2.994  117.0   17.3    74   12.9 
2025-10-10 00:00 UT   20 59 35.8   -16 27 55     2.418    2.994  116.0   17.4    74   13.0 
2025-10-11 00:00 UT   20 59 44.7   -16 27 11     2.431    2.993  115.1   17.6    74   13.0 
2025-10-12 00:00 UT   20 59 54.9   -16 26 22     2.443    2.993  114.1   17.7    74   13.0 
2025-10-13 00:00 UT   21 00 06.5   -16 25 27     2.456    2.993  113.2   17.8    74   13.0 
2025-10-14 00:00 UT   21 00 19.5   -16 24 27     2.468    2.992  112.2   18.0    74   13.0 
2025-10-15 00:00 UT   21 00 33.8   -16 23 21     2.481    2.992  111.3   18.1    74   13.0 
2025-10-16 00:00 UT   21 00 49.4   -16 22 10     2.494    2.991  110.4   18.2    74   13.0 
2025-10-17 00:00 UT   21 01 06.3   -16 20 53     2.507    2.991  109.5   18.3    74   13.1 


    Terminology:
            
    delta:  distance between minor planet and earth in AU
    radius: distance between minor planet and sun in AU
    magn:   magnitude (brightness) estimate    
    ra:     right ascension in hours (24h = 360deg)
    dec:    declination in degrees
    elong:  elongation in degrees (angle sun-earth-minor planet)    
    phase:  phase angle in degrees (angle sun-minor planet-earth)        
    AU:     Astronomical Unit (mean distance between earth and sun: 149597870.7 km
    

Orbital elements provided by the MPC (Minor Planet Center).
Calculations by a modified version of AAPlus, a C# implementation of the AA+ project by PJ Naughter from the algorithms presented in the book "Astronomical Algorithms" by Jean Meeus.
NGC2000 dso catalog and star labels from VizieR as provided by the Strasbourg astronomical Data Center.
Tycho2 catalog from the ESO archive.